FLOCK 2P-10 (41612 NORAD) Tracking and Keplerian Element Data

This shows tracking and keplerian element data for the satellite.

Feedback or suggestion? Click here.




ElementValue
Catalog41612
NameFLOCK 2P-10
Epoch Orbit26546
Epoch Day90.11072204
Epoch Year2021
RAAN154.6976
Inclination97.2933
Eccentricity0.000823
Argument of Perigee242.9529
Mean Anonmoly117.0871
Mean Motion15.27574676
Decay Rate3.51E-05
L11 41612U 16040P 21090.11072204 .00003510 00000-0 13279-3 0 9998
L22 41612 97.2933 154.6976 0008230 242.9529 117.0871 15.27574676265461



Live tracking and technical data element details for FLOCK 2P-10 (NORAD 41612). FLOCK 2P-10 can be tracked NOW for your location showing map with azimuth and elevation plus other details from your city location.







IsCatalogInMostPopularTable: catalog: 41612, numindb: 650
Update: records affected: 1



GetName: 41612 FLOCK 2P-10

Hit Count: updated at: Sat, 07 Mar 2026 06:13:27 GMT